STARLINK-31908, 59901

Orbit data source: Space-Track

STARLINK-31908, 59901 is a payload satellite owned by SpaceX/Seattle (US) in LEO that was launched on Tue, 28 May 2024 UTC via an FALCON 9 launch vehicle from the Air Force Eastern Test Range (AFETR). Payload-class satellites include a variety of spacecraft equipped with specific instruments for various scientific and technological missions. These include communications satellites like Starlink; space stations such as the ISS; scientific satellites like the Hubble; Earth observation satellites from companies like Planet Labs, Umbra, and HawkEye 360; GPS; miniature CubeSats for education and research; and military/defense satellites.

Loading next visibility...
Identifier
59901, 2024-100S
Orbit
LEO
Country
Flag of USUS
Related business
Manufacturer
SpaceX/Seattle
Mission
Operational Commercial Communications
Bus & Motor
STARLINK V2M, Unknown motor
Mass
730 kg wet, ~700 kg dry
Launch date (UTC)
2024-05-28 (2 years ago)
Launch vehicle
FALCON 9
Launch site
Air Force Eastern Test Range (AFETR)
Object type
Payload
Rocket body
Debris
Shape & HBR
Box + 2 Pan, 17.7 m
Radar Cross Section
33.884 m², Large (>1 m²)

Expand to show TLE details & history
Last TLE update: 2 days ago

TLE from 2 days ago
0 STARLINK-31908
1 59901U 24100S   26035.11580698 -.00000240  00000-0  78687-6 0  9994
2 59901  42.9976 307.9575 0000082 170.6745 189.4108 15.27580832 96095
Epoch: 2026-02-04T02:46Z
TLE epoch observation values (Epoch: 2026-02-04T02:46:45.723Z)
Latitude
-0.00001°
Longitude
131.97996°
Altitude
482.877 km
Speed
7.626 km/s
True Right ascension
20h 31m 49s
True Declination
0° 00' 00"
Sunlit
Object was in daylight at epoch
Visualization orbit readout
Latitude
Unknown
Longitude
Unknown
Altitude
Unknown
Speed
Unknown
Apparent Right ascension
Unknown
Apparent Declination
Unknown
Sunlit
N/A
Visualization observer readout
Local Sidereal Time
20:17:04
Azimuth
Unknown
Elevation
Unknown
Doppler factor
Unknown
Orbital elements
Apogee altitude
485.048 km
Perigee altitude
484.936 km
Semi-major axis
6,863.129 km
Eccentricity
0.00001
Inclination
42.9976°
RAAN
307.9575°
Arg. of periapsis
170.6745°
True anomaly
189.41065°
Mean anomaly
189.4108°
Eccentric anomaly
189.41072°
Mean motion
3.81733 °/min
Orbital period
94.31 mins
BSTAR
7.8687e-7
Loading maneuver chart data...
Computing Atmospheric mass density...
Loading historical data...
Loading historical data...
Loading historical data...
Loading historical data...
Loading historical data...
Loading historical data...
Loading historical data...

Documentation

Showing up to 5 results
|